When you browse on this site, cookies collect data to enhance your experience and personalize the content and advertising you see.
Visit our Privacy Policy to learn more. By continuing to use the site, you agree to this use of cookies and data.
  • In Latvia
  • List of Countries
  • For 7 days
  • Water Temperature
  • Weather Map
  • Weather Widgets
  • user-avatar
    Login

    Hourly Weather Liege

    Today, 22 January, Wednesday

    Time Temperature Precipitation Wind Pressure Humidity
    00:00 +1°C° 0 mm 1 mps 769 mmHg 77%
    01:00 0°C° 0 mm 1 mps 768 mmHg 79%
    02:00 0°C° 0 mm 1 mps 768 mmHg 81%
    03:00 0°C° 0 mm 1 mps 768 mmHg 82%
    04:00 0°C° 0 mm 1 mps 768 mmHg 81%
    05:00 0°C° 0 mm 1 mps 767 mmHg 80%
    06:00 -1°C° 0 mm 1 mps 767 mmHg 77%
    07:00 0°C° 0 mm 1 mps 767 mmHg 74%
    08:00 +1°C° 0 mm 1 mps 768 mmHg 71%
    09:00 -1°C° 0 mm 2 mps 768 mmHg 68%
    10:00 +3°C° 0 mm 1 mps 768 mmHg 70%
    11:00 +4°C° 0 mm 1 mps 767 mmHg 71%
    12:00 +5°C° 0 mm 1 mps 767 mmHg 70%
    13:00 +5°C° 0 mm 1 mps 767 mmHg 73%
    14:00 +5°C° 0 mm 1 mps 767 mmHg 77%
    15:00 +5°C° 0 mm 1 mps 766 mmHg 80%
    16:00 +3°C° 0 mm 2 mps 766 mmHg 84%
    17:00 +2°C° 0 mm 2 mps 767 mmHg 88%
    18:00 +1°C° 0 mm 2 mps 767 mmHg 91%
    19:00 +1°C° 0 mm 2 mps 767 mmHg 92%
    20:00 +1°C° 0 mm 2 mps 767 mmHg 93%
    21:00 +1°C° 0 mm 2 mps 767 mmHg 93%
    22:00 +2°C° 0 mm 2 mps 767 mmHg 93%
    23:00 +2°C° 0 mm 2 mps 767 mmHg 93%

    Tomorrow, 23 January, Thursday

    Time Temperature Precipitation Wind Pressure Humidity
    00:00 +2°C° 0 mm 2 mps 767 mmHg 92%
    01:00 +2°C° 0 mm 2 mps 766 mmHg 93%
    02:00 +2°C° 0 mm 2 mps 766 mmHg 93%
    03:00 +2°C° 0 mm 1 mps 765 mmHg 93%
    04:00 +1°C° 0 mm 2 mps 765 mmHg 93%
    05:00 +1°C° 0 mm 2 mps 765 mmHg 93%
    06:00 +1°C° 0 mm 2 mps 765 mmHg 93%
    07:00 +1°C° 0 mm 2 mps 765 mmHg 91%
    08:00 +2°C° 0 mm 2 mps 765 mmHg 90%
    09:00 +2°C° 0 mm 2 mps 764 mmHg 89%
    10:00 +4°C° 0 mm 2 mps 764 mmHg 84%
    11:00 +4°C° 0 mm 3 mps 764 mmHg 80%
    12:00 +5°C° 0 mm 3 mps 763 mmHg 75%
    13:00 +5°C° 0 mm 3 mps 762 mmHg 78%
    14:00 +5°C° 0 mm 2 mps 762 mmHg 80%
    15:00 +5°C° 0 mm 2 mps 761 mmHg 82%
    16:00 +4°C° 0 mm 2 mps 761 mmHg 85%
    17:00 +3°C° 0 mm 2 mps 761 mmHg 88%
    18:00 +1°C° 0 mm 2 mps 761 mmHg 91%
    19:00 +1°C° 0 mm 2 mps 761 mmHg 90%
    20:00 +2°C° 0 mm 1 mps 761 mmHg 90%
    21:00 +2°C° 0 mm 1 mps 760 mmHg 89%
    22:00 +2°C° 0 mm 1 mps 760 mmHg 89%
    23:00 +1°C° 0 mm 1 mps 760 mmHg 88%

    Day after tomorrow, 24 January, Friday

    Time Temperature Precipitation Wind Pressure Humidity
    00:00 +1°C° 0 mm 1 mps 760 mmHg 88%
    01:00 +1°C° 0 mm 1 mps 759 mmHg 87%
    02:00 +1°C° 0 mm 1 mps 759 mmHg 87%
    03:00 +1°C° 0 mm 1 mps 758 mmHg 87%
    04:00 +1°C° 0 mm 1 mps 758 mmHg 87%
    05:00 +1°C° 0 mm 1 mps 758 mmHg 87%
    06:00 +1°C° 0 mm 1 mps 758 mmHg 87%
    07:00 +1°C° 0 mm 1 mps 758 mmHg 83%
    08:00 +2°C° 0 mm 1 mps 758 mmHg 80%
    09:00 +3°C° 0 mm 1 mps 759 mmHg 77%
    10:00 +4°C° 0 mm 1 mps 758 mmHg 72%
    11:00 +4°C° 0 mm 0 mps 758 mmHg 67%
    12:00 +5°C° 0 mm 0 mps 758 mmHg 63%
    13:00 +5°C° 0 mm 0 mps 758 mmHg 66%
    14:00 +5°C° 0 mm 0 mps 757 mmHg 69%
    15:00 +5°C° 0 mm 0 mps 757 mmHg 72%
    16:00 +3°C° 0 mm 0 mps 757 mmHg 75%
    17:00 +2°C° 0 mm 0 mps 757 mmHg 79%
    18:00 +1°C° 0 mm 0 mps 757 mmHg 82%
    19:00 +1°C° 0 mm 0 mps 758 mmHg 82%
    20:00 +1°C° 0 mm 0 mps 758 mmHg 82%
    21:00 +2°C° 0 mm 1 mps 758 mmHg 82%
    22:00 +2°C° 0 mm 1 mps 758 mmHg 81%
    23:00 +2°C° 0 mm 1 mps 757 mmHg 80%

    25 January, Saturday

    Time Temperature Precipitation Wind Pressure Humidity
    00:00 +2°C° 0 mm 1 mps 757 mmHg 79%
    01:00 +2°C° 0 mm 1 mps 757 mmHg 79%
    02:00 +2°C° 0 mm 1 mps 757 mmHg 79%
    03:00 +2°C° 0 mm 1 mps 756 mmHg 80%
    04:00 +2°C° 0 mm 1 mps 756 mmHg 81%
    05:00 +2°C° 0 mm 1 mps 756 mmHg 82%
    06:00 +2°C° 0 mm 1 mps 756 mmHg 83%
    07:00 +3°C° 0 mm 1 mps 756 mmHg 83%
    08:00 +4°C° 0 mm 1 mps 756 mmHg 84%
    09:00 +4°C° 0 mm 1 mps 756 mmHg 84%
    10:00 +6°C° 0 mm 1 mps 756 mmHg 82%
    11:00 +6°C° 0 mm 2 mps 756 mmHg 80%
    12:00 +7°C° 0 mm 2 mps 755 mmHg 78%
    13:00 +8°C° 0 mm 1 mps 755 mmHg 80%
    14:00 +8°C° 0 mm 1 mps 754 mmHg 83%
    15:00 +8°C° 0 mm 1 mps 754 mmHg 86%
    16:00 +7°C° 0 mm 1 mps 754 mmHg 87%
    17:00 +6°C° 0 mm 1 mps 754 mmHg 89%
    18:00 +5°C° 0 mm 1 mps 754 mmHg 91%
    19:00 +4°C° 0 mm 2 mps 754 mmHg 91%
    20:00 +4°C° 0 mm 2 mps 753 mmHg 91%
    21:00 +4°C° 0 mm 2 mps 753 mmHg 91%
    22:00 +4°C° 0 mm 2 mps 753 mmHg 91%
    23:00 +3°C° 0 mm 3 mps 753 mmHg 91%

    26 January, Sunday

    Time Temperature Precipitation Wind Pressure Humidity
    00:00 +3°C° 0 mm 3 mps 753 mmHg 91%
    01:00 +3°C° 0 mm 3 mps 753 mmHg 92%
    02:00 +3°C° 0 mm 3 mps 753 mmHg 93%
    03:00 +3°C° 0 mm 3 mps 753 mmHg 94%
    04:00 +3°C° 0 mm 3 mps 753 mmHg 94%
    05:00 +3°C° 0 mm 3 mps 752 mmHg 94%
    06:00 +3°C° 0 mm 3 mps 752 mmHg 94%
    07:00 +4°C° 0 mm 4 mps 752 mmHg 93%
    08:00 +4°C° 0 mm 4 mps 753 mmHg 91%
    09:00 +5°C° 0 mm 4 mps 753 mmHg 89%
    10:00 +6°C° 0 mm 4 mps 753 mmHg 84%
    11:00 +8°C° 0 mm 5 mps 752 mmHg 78%
    12:00 +9°C° 0 mm 5 mps 752 mmHg 73%
    13:00 +9°C° 0 mm 5 mps 752 mmHg 75%
    14:00 +8°C° 0 mm 5 mps 752 mmHg 77%
    15:00 +8°C° 0 mm 5 mps 752 mmHg 78%
    16:00 +7°C° 0 mm 4 mps 752 mmHg 81%
    17:00 +7°C° 0 mm 4 mps 752 mmHg 84%
    18:00 +6°C° 0 mm 4 mps 752 mmHg 88%
    19:00 +6°C° 0.1 mm 5 mps 752 mmHg 87%
    20:00 +7°C° 0.1 mm 5 mps 752 mmHg 87%
    21:00 +7°C° 0.1 mm 6 mps 752 mmHg 87%
    22:00 +7°C° 0.2 mm 6 mps 752 mmHg 88%
    23:00 +7°C° 0.2 mm 5 mps 752 mmHg 88%

    27 January, Monday

    Time Temperature Precipitation Wind Pressure Humidity
    00:00 +7°C° 0.2 mm 5 mps 753 mmHg 89%
    01:00 +7°C° 0.2 mm 5 mps 753 mmHg 89%
    02:00 +7°C° 0.2 mm 5 mps 753 mmHg 90%
    03:00 +7°C° 0.2 mm 5 mps 753 mmHg 90%
    04:00 +7°C° 0.1 mm 4 mps 753 mmHg 91%
    05:00 +7°C° 0.1 mm 4 mps 753 mmHg 92%
    06:00 +7°C° 0.1 mm 4 mps 753 mmHg 93%
    07:00 +7°C° 0.1 mm 4 mps 753 mmHg 92%
    08:00 +7°C° 0.1 mm 4 mps 753 mmHg 91%
    09:00 +7°C° 0.1 mm 4 mps 753 mmHg 90%
    10:00 +8°C° 0 mm 5 mps 753 mmHg 86%
    11:00 +8°C° 0 mm 6 mps 753 mmHg 82%
    12:00 +9°C° 0 mm 7 mps 752 mmHg 78%
    13:00 +9°C° 0 mm 7 mps 752 mmHg 79%
    14:00 +9°C° 0 mm 7 mps 751 mmHg 79%
    15:00 +9°C° 0 mm 7 mps 751 mmHg 80%
    16:00 +8°C° 0 mm 7 mps 751 mmHg 81%
    17:00 +8°C° 0 mm 7 mps 750 mmHg 82%
    18:00 +7°C° 0 mm 8 mps 750 mmHg 82%
    19:00 +7°C° 0 mm 8 mps 749 mmHg 82%
    20:00 +7°C° 0 mm 8 mps 749 mmHg 82%
    21:00 +7°C° 0 mm 8 mps 749 mmHg 81%
    22:00 +7°C° 0 mm 9 mps 748 mmHg 79%
    23:00 +7°C° 0 mm 9 mps 748 mmHg 77%
    Show more